{"data":{"norad_id":62162,"epoch":"2026-05-25T03:31:14.014272Z","epoch_age_seconds":65813,"freshness":"FRESH","line1":"1 62162U 24224Z   26145.14668998  .00010391  00000+0  38649-3 0  9996","line2":"2 62162  43.0002  89.7336 0001539 266.6787  93.3888 15.27588682 84120","mean_motion":15.27588682,"eccentricity":0.0001539,"inclination_deg":43.0002,"raan_deg":89.7336,"arg_perigee_deg":266.6787,"mean_anomaly_deg":93.3888,"bstar":0.00038649,"rev_number":8412,"period_min":94.266212951688,"perigee_km":481.96716659219,"apogee_km":484.0790316707,"semimajor_km":6861.1600991314,"source":"CELESTRAK","updated_at":"2026-05-25T13:38:19.599239Z"}}